| time (UTC) | temp C | wind direction | speed KPH | gust KPH | rain 1hr cm | rain 24hr cm | rain mn cm | humidity % | barometer mb |
| 20260504100401 | 3 | 175 | 0.0 | 1.6 | 0.00 | 0.00 | 0.00 | 82 | 1014.7 |
| 20260504090128 | 2 | 174 | 0.0 | 0.0 | 0.00 | 0.00 | 0.00 | 87 | 1014.5 |
| 20260504081120 | 2 | 174 | 0.0 | 0.0 | 0.00 | 0.00 | 0.00 | 87 | 1014.7 |
| 20260504080620 | 2 | 174 | 0.0 | 0.0 | 0.00 | 0.00 | 0.00 | 86 | 1014.5 |
| 20260504080130 | 2 | 174 | 0.0 | 0.0 | 0.00 | 0.00 | 0.00 | 86 | 1014.5 |
| 20260504070121 | 3 | 174 | 0.0 | 3.2 | 0.00 | 0.00 | 0.00 | 85 | 1014.7 |
| 20260504060247 | 3 | 251 | 0.0 | 0.0 | 0.00 | 0.00 | 0.00 | 84 | 1014.6 |
| 20260504050443 | 3 | 251 | 0.0 | 0.0 | 0.00 | 0.00 | 0.00 | 83 | 1014.7 |
| 20260504045942 | 3 | 251 | 0.0 | 0.0 | 0.00 | 0.00 | 0.00 | 83 | 1014.7 |
| 20260504045442 | 3 | 251 | 0.0 | 0.0 | 0.00 | 0.00 | 0.00 | 83 | 1014.7 |
| 20260504044941 | 3 | 251 | 0.0 | 0.0 | 0.00 | 0.00 | 0.00 | 83 | 1014.7 |
| 20260504044437 | 3 | 251 | 0.0 | 0.0 | 0.00 | 0.00 | 0.00 | 83 | 1014.7 |
| 20260504043940 | 3 | 251 | 0.0 | 0.0 | 0.00 | 0.00 | 0.00 | 82 | 1014.7 |
| 20260504043441 | 3 | 250 | 0.0 | 0.0 | 0.00 | 0.00 | 0.00 | 82 | 1014.7 |
| 20260504042938 | 3 | 251 | 0.0 | 0.0 | 0.00 | 0.00 | 0.00 | 81 | 1014.7 |
| 20260504042439 | 4 | 251 | 0.0 | 0.0 | 0.00 | 0.00 | 0.00 | 81 | 1014.6 |
| 20260504041935 | 4 | 251 | 0.0 | 0.0 | 0.00 | 0.00 | 0.00 | 81 | 1014.5 |
| 20260504041435 | 4 | 251 | 0.0 | 0.0 | 0.00 | 0.00 | 0.00 | 80 | 1014.4 |
| 20260504040933 | 4 | 250 | 0.0 | 0.0 | 0.00 | 0.00 | 0.00 | 80 | 1014.2 |
| 20260504040432 | 4 | 251 | 0.0 | 0.0 | 0.00 | 0.00 | 0.00 | 80 | 1014.2 |
| 20260504035932 | 4 | 251 | 0.0 | 0.0 | 0.00 | 0.00 | 0.00 | 80 | 1014.2 |
| 20260504035427 | 4 | 251 | 0.0 | 0.0 | 0.00 | 0.00 | 0.00 | 79 | 1014.2 |
| 20260504034918 | 5 | 250 | 0.0 | 0.0 | 0.00 | 0.00 | 0.00 | 79 | 1014.2 |
| 20260504034415 | 5 | 251 | 0.0 | 0.0 | 0.00 | 0.00 | 0.00 | 78 | 1014.1 |
| 20260504033909 | 5 | 251 | 0.0 | 0.0 | 0.00 | 0.00 | 0.00 | 78 | 1014.1 |
| 20260504033401 | 5 | 250 | 0.0 | 0.0 | 0.00 | 0.00 | 0.00 | 78 | 1014.1 |
| 20260504032854 | 5 | 251 | 0.0 | 0.0 | 0.00 | 0.00 | 0.00 | 77 | 1014.0 |
| 20260504032351 | 5 | 250 | 0.0 | 0.0 | 0.00 | 0.00 | 0.00 | 77 | 1014.1 |
| 20260504031842 | 5 | 250 | 0.0 | 0.0 | 0.00 | 0.00 | 0.00 | 76 | 1014.0 |
| 20260504031337 | 5 | 251 | 0.0 | 0.0 | 0.00 | 0.00 | 0.00 | 75 | 1014.0 |
| 20260504030835 | 5 | 251 | 0.0 | 0.0 | 0.00 | 0.00 | 0.00 | 75 | 1013.8 |
| 20260504030828 | 6 | 251 | 0.0 | 0.0 | 0.00 | 0.00 | 0.00 | 74 | 1013.9 |
| 20260504025821 | 5 | 251 | 0.0 | 0.0 | 0.00 | 0.00 | 0.00 | 75 | 1013.9 |
| 20260504025314 | 5 | 251 | 0.0 | 0.0 | 0.00 | 0.00 | 0.00 | 74 | 1013.9 |
| 20260504025023 | 6 | 251 | 0.0 | 0.0 | 0.00 | 0.00 | 0.00 | 73 | 1013.8 |
| 20260504024529 | 6 | 251 | 0.0 | 0.0 | 0.00 | 0.00 | 0.00 | 72 | 1013.8 |
| 20260504023755 | 6 | 251 | 0.0 | 0.0 | 0.00 | 0.00 | 0.00 | 72 | 1013.8 |
| 20260504023518 | 6 | 250 | 0.0 | 0.0 | 0.00 | 0.00 | 0.00 | 71 | 1013.8 |
| 20260504022743 | 6 | 251 | 0.0 | 0.0 | 0.00 | 0.00 | 0.00 | 71 | 1013.8 |
| 20260504022238 | 6 | 251 | 0.0 | 0.0 | 0.00 | 0.00 | 0.00 | 70 | 1013.9 |
| 20260504021732 | 7 | 250 | 0.0 | 0.0 | 0.00 | 0.00 | 0.00 | 69 | 1013.9 |
| 20260504021226 | 7 | 251 | 0.0 | 0.0 | 0.00 | 0.00 | 0.00 | 68 | 1013.8 |
| 20260504020721 | 7 | 251 | 0.0 | 0.0 | 0.00 | 0.00 | 0.00 | 68 | 1013.8 |
| 20260504020213 | 7 | 251 | 0.0 | 0.0 | 0.00 | 0.00 | 0.00 | 68 | 1013.8 |
| 20260504015707 | 7 | 251 | 0.0 | 0.0 | 0.00 | 0.00 | 0.00 | 67 | 1013.8 |
| 20260504015202 | 7 | 251 | 0.0 | 0.0 | 0.00 | 0.00 | 0.00 | 66 | 1013.8 |
| 20260504014654 | 7 | 251 | 0.0 | 0.0 | 0.00 | 0.00 | 0.00 | 66 | 1013.8 |
| 20260504014150 | 7 | 251 | 0.0 | 0.0 | 0.00 | 0.00 | 0.00 | 65 | 1013.8 |
| 20260504013644 | 7 | 251 | 0.0 | 0.0 | 0.00 | 0.00 | 0.00 | 64 | 1013.7 |
| 20260504013359 | 8 | 250 | 0.0 | 0.0 | 0.00 | 0.00 | 0.00 | 63 | 1013.6 |
| 20260504012631 | 8 | 250 | 0.0 | 0.0 | 0.00 | 0.00 | 0.00 | 62 | 1013.5 |
| 20260504012127 | 8 | 250 | 0.0 | 0.0 | 0.00 | 0.00 | 0.00 | 62 | 1013.5 |
| 20260504011621 | 8 | 251 | 0.0 | 0.0 | 0.00 | 0.00 | 0.00 | 61 | 1013.5 |
| 20260504011343 | 8 | 250 | 0.0 | 0.0 | 0.00 | 0.00 | 0.00 | 61 | 1013.4 |
| 20260504010609 | 8 | 251 | 0.0 | 0.0 | 0.00 | 0.00 | 0.00 | 60 | 1013.4 |
| 20260504010116 | 9 | 250 | 0.0 | 0.0 | 0.00 | 0.00 | 0.00 | 58 | 1013.4 |
| 20260504005556 | 10 | 250 | 0.0 | 0.0 | 0.00 | 0.00 | 0.00 | 56 | 1013.2 |
| 20260504005310 | 10 | 250 | 0.0 | 0.0 | 0.00 | 0.00 | 0.00 | 55 | 1013.2 |
| 20260504004544 | 10 | 250 | 0.0 | 0.0 | 0.00 | 0.00 | 0.00 | 55 | 1013.2 |
| 20260504004256 | 10 | 250 | 0.0 | 1.6 | 0.00 | 0.00 | 0.00 | 55 | 1013.2 |
| 20260504003539 | 10 | 250 | 1.6 | 6.4 | 0.00 | 0.00 | 0.00 | 52 | 1013.2 |
| 20260504003036 | 10 | 250 | 1.6 | 6.4 | 0.00 | 0.00 | 0.00 | 51 | 1013.1 |
| 20260504002543 | 11 | 252 | 1.6 | 4.8 | 0.00 | 0.00 | 0.00 | 50 | 1013.0 |
| 20260504002039 | 11 | 252 | 0.0 | 3.2 | 0.00 | 0.00 | 0.00 | 48 | 1012.9 |
| 20260504001535 | 11 | 252 | 0.0 | 3.2 | 0.00 | 0.00 | 0.00 | 47 | 1012.8 |
| 20260504001032 | 12 | 252 | 1.6 | 4.8 | 0.00 | 0.00 | 0.00 | 46 | 1012.8 |
| 20260504000531 | 12 | 252 | 1.6 | 4.8 | 0.00 | 0.00 | 0.00 | 44 | 1012.7 |
| 20260504000033 | 12 | 251 | 3.2 | 8.0 | 0.00 | 0.00 | 0.00 | 44 | 1012.6 |
| 20260503235529 | 13 | 251 | 3.2 | 9.7 | 0.00 | 0.00 | 0.00 | 43 | 1012.6 |
| 20260503235043 | 13 | 238 | 3.2 | 9.7 | 0.00 | 0.00 | 0.00 | 42 | 1012.5 |
| 20260503234800 | 13 | 245 | 4.8 | 9.7 | 0.00 | 0.00 | 0.00 | 41 | 1012.5 |
| 20260503234026 | 13 | 267 | 4.8 | 12.9 | 0.00 | 0.00 | 0.00 | 40 | 1012.5 |
| 20260503233525 | 13 | 254 | 3.2 | 12.9 | 0.00 | 0.00 | 0.00 | 40 | 1012.5 |
| 20260503233025 | 13 | 252 | 4.8 | 12.9 | 0.00 | 0.00 | 0.00 | 40 | 1012.4 |
| 20260503232802 | 14 | 273 | 4.8 | 12.9 | 0.00 | 0.00 | 0.00 | 39 | 1012.4 |
| 20260503232022 | 14 | 258 | 4.8 | 12.9 | 0.00 | 0.00 | 0.00 | 38 | 1012.5 |
| 20260503231522 | 14 | 275 | 4.8 | 16.1 | 0.00 | 0.00 | 0.00 | 38 | 1012.5 |
| 20260503231027 | 14 | 259 | 4.8 | 16.1 | 0.00 | 0.00 | 0.00 | 39 | 1012.5 |
| 20260503230753 | 15 | 266 | 3.2 | 14.5 | 0.00 | 0.00 | 0.00 | 37 | 1012.4 |
| 20260503230023 | 15 | 268 | 3.2 | 14.5 | 0.00 | 0.00 | 0.00 | 37 | 1012.5 |
| 20260503225745 | 15 | 288 | 4.8 | 12.9 | 0.00 | 0.00 | 0.00 | 36 | 1012.4 |
| 20260503225021 | 15 | 262 | 4.8 | 20.9 | 0.00 | 0.00 | 0.00 | 36 | 1012.3 |
| 20260503224742 | 15 | 257 | 6.4 | 20.9 | 0.00 | 0.00 | 0.00 | 36 | 1012.3 |
| 20260503224019 | 15 | 256 | 6.4 | 14.5 | 0.00 | 0.00 | 0.00 | 37 | 1012.2 |
| 20260503223515 | 15 | 225 | 6.4 | 17.7 | 0.00 | 0.00 | 0.00 | 37 | 1012.2 |
| 20260503223014 | 15 | 264 | 6.4 | 19.3 | 0.00 | 0.00 | 0.00 | 36 | 1012.2 |
| 20260503223001 | 15 | 283 | 6.4 | 19.3 | 0.00 | 0.00 | 0.00 | 37 | 1012.3 |
| 20260503222501 | 15 | 296 | 6.4 | 19.3 | 0.00 | 0.00 | 0.00 | 36 | 1012.2 |
| 20260503221517 | 15 | 324 | 6.4 | 19.3 | 0.00 | 0.00 | 0.00 | 35 | 1012.2 |
| 20260503221014 | 15 | 271 | 8.0 | 19.3 | 0.00 | 0.00 | 0.00 | 36 | 1012.3 |
| 20260503220512 | 15 | 246 | 8.0 | 22.5 | 0.00 | 0.00 | 0.00 | 36 | 1012.3 |
| 20260503220014 | 15 | 253 | 8.0 | 22.5 | 0.00 | 0.00 | 0.00 | 34 | 1012.2 |
| 20260503215512 | 15 | 265 | 6.4 | 20.9 | 0.00 | 0.00 | 0.00 | 36 | 1012.3 |
| 20260503215011 | 15 | 11 | 6.4 | 19.3 | 0.00 | 0.00 | 0.00 | 35 | 1012.3 |
| 20260503214511 | 15 | 0 | 8.0 | 22.5 | 0.00 | 0.00 | 0.00 | 35 | 1012.3 |
| 20260503214011 | 16 | 265 | 9.7 | 22.5 | 0.00 | 0.00 | 0.00 | 35 | 1012.3 |
| 20260503213738 | 16 | 269 | 8.0 | 20.9 | 0.00 | 0.00 | 0.00 | 35 | 1012.3 |
| 20260503213010 | 16 | 286 | 6.4 | 16.1 | 0.00 | 0.00 | 0.00 | 35 | 1012.3 |
| 20260503212512 | 16 | 269 | 6.4 | 17.7 | 0.00 | 0.00 | 0.00 | 33 | 1012.2 |
| 20260503212013 | 15 | 323 | 8.0 | 19.3 | 0.00 | 0.00 | 0.00 | 35 | 1012.2 |
| 20260503211513 | 15 | 308 | 6.4 | 19.3 | 0.00 | 0.00 | 0.00 | 38 | 1012.2 |
| 20260503211010 | 15 | 267 | 6.4 | 24.1 | 0.00 | 0.00 | 0.00 | 37 | 1012.3 |
| 20260503210512 | 15 | 294 | 8.0 | 24.1 | 0.00 | 0.00 | 0.00 | 35 | 1012.2 |
| 20260503210008 | 15 | 291 | 8.0 | 24.1 | 0.00 | 0.00 | 0.00 | 36 | 1012.2 |
| 20260503205506 | 16 | 313 | 8.0 | 24.1 | 0.00 | 0.00 | 0.00 | 35 | 1012.3 |
| 20260503205009 | 16 | 313 | 9.7 | 27.4 | 0.00 | 0.00 | 0.00 | 33 | 1012.3 |
| 20260503204506 | 16 | 257 | 9.7 | 27.4 | 0.00 | 0.00 | 0.00 | 36 | 1012.3 |
| 20260503204007 | 16 | 304 | 8.0 | 24.1 | 0.00 | 0.00 | 0.00 | 37 | 1012.3 |
| 20260503203507 | 16 | 264 | 8.0 | 29.0 | 0.00 | 0.00 | 0.00 | 36 | 1012.3 |
| 20260503203009 | 16 | 292 | 8.0 | 29.0 | 0.00 | 0.00 | 0.00 | 34 | 1012.3 |
| 20260503202725 | 16 | 321 | 8.0 | 24.1 | 0.00 | 0.00 | 0.00 | 39 | 1012.4 |
| 20260503202027 | 15 | 266 | 11.3 | 25.7 | 0.00 | 0.00 | 0.00 | 34 | 1012.5 |
| 20260503202012 | 15 | 321 | 9.7 | 24.1 | 0.00 | 0.00 | 0.00 | 34 | 1012.3 |
| 20260503201012 | 15 | 258 | 9.7 | 25.7 | 0.00 | 0.00 | 0.00 | 33 | 1012.5 |
| 20260503200513 | 15 | 268 | 8.0 | 24.1 | 0.00 | 0.00 | 0.00 | 38 | 1012.4 |
| 20260503200012 | 15 | 355 | 9.7 | 24.1 | 0.00 | 0.00 | 0.00 | 34 | 1012.6 |
| 20260503195505 | 15 | 338 | 9.7 | 27.4 | 0.00 | 0.00 | 0.00 | 36 | 1012.7 |
| 20260503195011 | 15 | 309 | 9.7 | 27.4 | 0.00 | 0.00 | 0.00 | 38 | 1012.7 |
| 20260503194507 | 15 | 229 | 8.0 | 24.1 | 0.00 | 0.00 | 0.00 | 35 | 1012.8 |
| 20260503194005 | 15 | 324 | 9.7 | 24.1 | 0.00 | 0.00 | 0.00 | 40 | 1013.0 |
| 20260503193519 | 13 | 255 | 11.3 | 29.0 | 0.00 | 0.00 | 0.00 | 38 | 1013.0 |
| 20260503193008 | 15 | 235 | 11.3 | 29.0 | 0.00 | 0.00 | 0.00 | 37 | 1013.0 |
| 20260503192506 | 14 | 228 | 9.7 | 27.4 | 0.00 | 0.00 | 0.00 | 41 | 1012.9 |
| 20260503192009 | 13 | 323 | 8.0 | 20.9 | 0.00 | 0.00 | 0.00 | 39 | 1013.1 |
| 20260503191458 | 14 | 320 | 9.7 | 24.1 | 0.00 | 0.00 | 0.00 | 44 | 1013.2 |
| 20260503190953 | 14 | 260 | 9.7 | 25.7 | 0.00 | 0.00 | 0.00 | 38 | 1013.2 |
| 20260503190448 | 15 | 248 | 9.7 | 25.7 | 0.00 | 0.00 | 0.00 | 39 | 1013.4 |
| 20260503185949 | 15 | 254 | 9.7 | 20.9 | 0.00 | 0.00 | 0.00 | 40 | 1013.3 |
| 20260503185934 | 15 | 271 | 9.7 | 24.1 | 0.00 | 0.00 | 0.00 | 40 | 1013.3 |
| 20260503184952 | 14 | 274 | 9.7 | 24.1 | 0.00 | 0.00 | 0.00 | 39 | 1013.4 |
| 20260503184452 | 15 | 348 | 9.7 | 24.1 | 0.00 | 0.00 | 0.00 | 40 | 1013.5 |
| 20260503184206 | 14 | 333 | 8.0 | 24.1 | 0.00 | 0.00 | 0.00 | 42 | 1013.5 |
| 20260503183446 | 14 | 288 | 8.0 | 22.5 | 0.00 | 0.00 | 0.00 | 39 | 1013.5 |
| 20260503182947 | 15 | 307 | 9.7 | 22.5 | 0.00 | 0.00 | 0.00 | 39 | 1013.5 |
| 20260503182448 | 14 | 338 | 9.7 | 29.0 | 0.00 | 0.00 | 0.00 | 40 | 1013.5 |
| 20260503181947 | 14 | 236 | 9.7 | 29.0 | 0.00 | 0.00 | 0.00 | 38 | 1013.6 |
| 20260503181447 | 14 | 325 | 8.0 | 24.1 | 0.00 | 0.00 | 0.00 | 40 | 1013.6 |
| 20260503180947 | 14 | 285 | 9.7 | 25.7 | 0.00 | 0.00 | 0.00 | 38 | 1013.7 |
| 20260503180446 | 13 | 263 | 11.3 | 30.6 | 0.00 | 0.00 | 0.00 | 40 | 1013.6 |
| 20260503175953 | 13 | 250 | 9.7 | 30.6 | 0.00 | 0.00 | 0.00 | 39 | 1013.7 |
| 20260503175725 | 14 | 254 | 9.7 | 24.1 | 0.00 | 0.00 | 0.00 | 37 | 1013.7 |
| 20260503174955 | 15 | 258 | 8.0 | 24.1 | 0.00 | 0.00 | 0.00 | 40 | 1013.8 |
| 20260503174452 | 13 | 270 | 8.0 | 19.3 | 0.00 | 0.00 | 0.00 | 43 | 1013.6 |
| 20260503173949 | 12 | 242 | 8.0 | 19.3 | 0.00 | 0.00 | 0.00 | 41 | 1013.7 |
| 20260503173440 | 13 | 306 | 8.0 | 25.7 | 0.00 | 0.00 | 0.00 | 41 | 1013.8 |
| 20260503172934 | 13 | 233 | 9.7 | 25.7 | 0.00 | 0.00 | 0.00 | 42 | 1013.7 |
| 20260503172429 | 13 | 281 | 8.0 | 22.5 | 0.00 | 0.00 | 0.00 | 40 | 1013.8 |
| 20260503171918 | 13 | 267 | 9.7 | 22.5 | 0.00 | 0.00 | 0.00 | 40 | 1013.8 |
| 20260503171409 | 13 | 259 | 12.9 | 32.2 | 0.00 | 0.00 | 0.00 | 41 | 1013.9 |
| 20260503170914 | 13 | 298 | 11.3 | 32.2 | 0.00 | 0.00 | 0.00 | 37 | 1014.0 |
| 20260503170355 | 13 | 305 | 9.7 | 27.4 | 0.00 | 0.00 | 0.00 | 39 | 1014.0 |
| 20260503150638 | 10 | 257 | 9.7 | 20.9 | 0.00 | 0.00 | 0.00 | 53 | 1014.8 |
| 20260503150133 | 10 | 276 | 9.7 | 22.5 | 0.00 | 0.00 | 0.00 | 49 | 1014.7 |
| 20260503130919 | 8 | 336 | 9.7 | 24.1 | 0.00 | 0.00 | 0.00 | 58 | 1014.7 |
| 20260503130412 | 8 | 315 | 9.7 | 27.4 | 0.00 | 0.00 | 0.00 | 59 | 1014.7 |
| 20260503130140 | 8 | 254 | 11.3 | 27.4 | 0.00 | 0.00 | 0.00 | 60 | 1014.7 |
| 20260503110345 | 5 | 310 | 3.2 | 12.9 | 0.00 | 0.00 | 0.00 | 72 | 1013.6 |